This demonstration page uses our WeatherBlox Daily Observations layout. Learn more.

Left ArrowRight Arrow

Hourly Observations for May 22, 2018

Temp ( °F °C ) Dew Point ( °F °C ) Humidity (%) Winds ( mph kmh ) Pressure ( in mb ) Visibility ( mi km ) Precip ( " mm )
12:15 am 00:15 Mostly Cloudy 63 17.2 59 15 87 87 SE 12 19 29.88 1012 10 16 N/A
12:35 am 00:35 Partly Cloudy 63 17.2 59 14.9 86 86 SE 12 19 29.88 1012 10 16 N/A
12:55 am 00:55 Partly Cloudy 63 17.1 59 14.8 86 86 SE 12 19 29.88 1012 10 16 N/A
1:15 am 01:15 Partly Cloudy 63 17 58 14.7 86 86 SE 13 20 29.88 1012 10 16 N/A
1:35 am 01:35 Partly Cloudy 62 16.8 58 14.7 88 88 SE 12 19 29.88 1012 10 16 N/A
1:55 am 01:55 Mostly Cloudy 62 16.7 59 14.8 89 89 SE 13 20 29.88 1012 10 16 N/A
2:15 am 02:15 Partly Cloudy 62 16.5 59 15 91 91 SE 13 20 29.88 1012 10 16 N/A
2:35 am 02:35 Partly Cloudy 62 16.7 59 15.1 90 90 SSE 13 20 29.85 1011 10 16 N/A
2:55 am 02:55 Partly Cloudy 62 16.5 59 15.2 92 92 SSE 13 20 29.85 1011 10 16 N/A
3:15 am 03:15 Clear 62 16.4 59 15.2 93 93 SSE 13 20 29.85 1011 10 16 N/A
3:35 am 03:35 Clear 61 16.3 60 15.3 94 94 SSE 16 26 29.85 1011 10 16 N/A
3:55 am 03:55 Clear 61 16.2 60 15.3 94 94 SSE 15 24 29.85 1011 10 16 N/A
4:15 am 04:15 Clear 62 16.5 60 15.5 94 94 SSE 17 28 29.85 1011 10 16 N/A
4:35 am 04:35 Clear 62 16.5 60 15.3 93 93 SSE 17 28 29.85 1011 10 16 N/A
4:55 am 04:55 Clear 62 16.5 59 15.2 92 92 S 14 22 29.85 1011 10 16 N/A
5:15 am 05:15 Clear 61 16.3 59 15.2 93 93 S 12 19 29.85 1011 10 16 N/A
5:35 am 05:35 Clear 61 16.1 59 15.2 94 94 S 13 20 29.85 1011 10 16 N/A
5:55 am 05:55 Partly Cloudy 62 16.5 60 15.4 93 93 S 14 22 29.85 1011 10 16 N/A
6:15 am 06:15 Sunny 61 16 59 15.1 94 94 S 15 24 29.88 1012 10 16 N/A
6:35 am 06:35 Sunny 62 16.5 60 15.3 93 93 S 14 22 29.88 1012 10 16 N/A
6:55 am 06:55 Sunny 62 16.5 60 15.4 93 93 S 13 20 29.88 1012 10 16 N/A
7:15 am 07:15 Sunny 62 16.9 60 15.5 92 92 S 12 19 29.88 1012 10 16 N/A
7:35 am 07:35 Sunny 63 17.4 60 15.7 90 90 SSW 10 17 29.88 1012 10 16 N/A
7:55 am 07:55 Sunny 64 18 61 16 88 88 SSW 12 19 29.88 1012 10 16 N/A
8:15 am 08:15 Sunny 65 18.5 61 16.3 87 87 SSW 15 24 29.91 1013 10 16 N/A
8:35 am 08:35 Sunny 66 18.9 62 16.5 86 86 SSW 13 20 29.91 1013 10 16 N/A
8:55 am 08:55 Sunny 67 19.5 62 16.7 84 84 SW 12 19 29.88 1012 10 16 N/A
9:15 am 09:15 Sunny 68 20.1 62 16.9 82 82 SW 14 22 29.88 1012 10 16 N/A
9:35 am 09:35 Sunny 69 20.8 63 17.2 80 80 SW 12 19 29.88 1012 10 16 N/A
9:55 am 09:55 Sunny 70 21.3 63 17.1 77 77 SSW 12 19 29.88 1012 10 16 N/A
10:15 am 10:15 Sunny 72 22 62 16.8 72 72 SW 9 15 29.88 1012 10 16 N/A
10:35 am 10:35 Sunny 73 22.8 63 17 70 70 SW 7 11 29.85 1011 10 16 N/A
10:55 am 10:55 Sunny 75 23.8 62 16.8 65 65 SSW 9 15 29.85 1011 10 16 N/A
11:15 am 11:15 Sunny 74 23.5 63 17.1 67 67 S 8 13 29.85 1011 10 16 N/A
11:35 am 11:35 Sunny 74 23.5 63 17.1 67 67 S 9 15 29.85 1011 10 16 N/A
11:55 am 11:55 Sunny 76 24.2 63 17.1 65 65 SSW 10 17 29.85 1011 10 16 N/A
12:15 pm 12:15 Sunny 77 25 63 17.3 62 62 S 8 13 29.85 1011 10 16 N/A
12:35 pm 12:35 Sunny 77 25.2 63 17.2 61 61 S 10 17 29.85 1011 10 16 N/A
12:55 pm 12:55 Sunny 79 26.3 64 17.8 60 60 S 10 17 29.85 1011 10 16 N/A
1:15 pm 13:15 Sunny 79 26.1 63 17.3 58 58 SSE 10 17 29.85 1011 10 16 N/A
1:35 pm 13:35 Sunny 81 27.4 63 17.4 54 54 SSW 13 20 29.83 1010 10 16 N/A
1:55 pm 13:55 Sunny 82 28 63 17 51 51 S 12 19 29.80 1009 10 16 N/A
2:15 pm 14:15 Sunny 81 27.4 62 16.9 53 53 S 7 11 29.80 1009 10 16 N/A
2:35 pm 14:35 Sunny 82 28 61 15.9 48 48 S 9 15 29.80 1009 10 16 N/A
2:55 pm 14:55 Sunny 83 28.2 63 17.1 51 51 SSE 9 15 29.80 1009 10 16 N/A
3:15 pm 15:15 Sunny 84 28.8 59 15.2 44 44 SSE 13 20 29.80 1009 10 16 N/A
3:35 pm 15:35 Sunny 85 29.2 60 15.7 44 44 SSE 14 22 29.80 1009 10 16 N/A
3:55 pm 15:55 Sunny 85 29.5 58 14.5 40 40 SSE 16 26 29.77 1008 10 16 N/A
4:15 pm 16:15 Partly Cloudy 85 29.4 57 13.9 39 39 SSE 18 30 29.77 1008 10 16 N/A
4:35 pm 16:35 Sunny 86 29.8 57 14.1 38 38 S 18 30 29.74 1007 10 16 N/A
4:55 pm 16:55 Partly Cloudy 84 29.1 57 13.7 39 39 SSE 20 31 29.77 1008 10 16 N/A
5:15 pm 17:15 Partly Cloudy 86 29.8 54 12.3 34 34 SSE 15 24 29.74 1007 10 16 N/A
5:35 pm 17:35 Sunny 86 29.8 55 12.8 35 35 SSE 22 35 29.74 1007 10 16 N/A
5:55 pm 17:55 Sunny 86 30 55 12.8 35 35 S 17 28 29.74 1007 10 16 N/A
6:15 pm 18:15 Partly Cloudy 85 29.4 56 13.3 37 37 SSE 17 28 29.71 1006 10 16 N/A
6:35 pm 18:35 Sunny 83 28.5 55 12.8 38 38 S 14 22 29.77 1008 10 16 N/A
6:55 pm 18:55 Sunny 82 27.7 54 12.4 39 39 SSE 15 24 29.74 1007 10 16 N/A
7:15 pm 19:15 Sunny with Nearby Thunderstorms 81 27 58 14.2 45 45 SSE 13 20 29.77 1008 10 16 N/A
7:35 pm 19:35 Sunny 80 26.6 62 16.5 54 54 SE 13 20 29.77 1008 10 16 N/A
7:55 pm 19:55 Sunny 79 26.3 62 16.9 56 56 SSE 13 20 29.77 1008 10 16 N/A
8:15 pm 20:15 Partly Cloudy 78 25.8 62 16.7 57 57 SE 12 19 29.80 1009 10 16 N/A
8:35 pm 20:35 Partly Cloudy 78 25.3 62 16.6 59 59 SE 12 19 29.80 1009 10 16 N/A
8:55 pm 20:55 Partly Cloudy 77 25 62 16.6 60 60 SE 13 20 29.80 1009 10 16 N/A
9:15 pm 21:15 Partly Cloudy with Nearby Thunderstorms 76 24.6 62 16.5 61 61 SE 14 22 29.80 1009 10 16 N/A
9:35 pm 21:35 Clear 75 23.7 62 16.5 64 64 SE 13 20 29.83 1010 10 16 N/A
9:55 pm 21:55 Clear 74 23.3 61 16.3 65 65 SSE 12 19 29.83 1010 10 16 N/A
10:15 pm 22:15 Clear 73 22.9 61 16.3 66 66 SSE 13 20 29.83 1010 10 16 N/A
10:35 pm 22:35 Clear 73 22.5 62 16.4 69 69 SSE 13 20 29.83 1010 10 16 N/A
10:55 pm 22:55 Clear 73 22.7 62 16.6 69 69 SSE 13 20 29.88 1012 10 16 N/A
11:15 pm 23:15 Clear 73 23 63 17 69 69 SSE 17 28 29.85 1011 10 16 N/A
11:35 pm 23:35 Clear 74 23.1 63 17.2 70 70 SSE 17 28 29.85 1011 10 16 N/A
11:55 pm 23:55 Clear 72 22.3 63 17.3 73 73 SSE 10 17 29.88 1012 10 16 N/A

Powered by AerisWeather